Tracking 29892 objects as of 21-Nov-2024
HD Live streaming from Space Station
objects crossing your sky now

THORAD DELTA 1 DEB

Track THORAD DELTA 1 DEB now!
10-day predictions


NORAD ID: 8136
Int'l Code: 1974-089E
Perigee: 1,352.5 km
Apogee: 1,468.3 km
Inclination: 101.0 °
Period: 113.9 minutes
Semi major axis: 7781 km
RCS: 6.2661 m2 (large)
Launch date: November 15, 1974
Source: United States (US)
Launch site: AIR FORCE WESTERN TEST RANGE (AFWTR)

Note: This is SATELLITE DEBRIS
Your satellite tracking list
Your tracking list is empty




NASA's NSSDC Master Catalog

Two Line Element Set (TLE):
1 08136U 74089E   24325.94552387 -.00000034  00000-0  39989-4 0  9995
2 08136 101.0496 334.5657 0074457 136.8484 341.6250 12.64786615 33312
Source of the keplerian elements: AFSPC